星链-31298 (STARLINK-31298 )

导读

STARLINK-31298是美国SpaceX公司星链(Starlink)星座的一颗卫星,于2024年3月4日发射。星链项目旨在构建低地球轨道卫星网络,为全球尤其是偏远地区提供低延迟、高速的宽带互联网服务。作为星链星座的组成部分,该卫星助力SpaceX扩大全球互联网覆盖范围,推动卫星互联网技术发展,是SpaceX大规模部署星座计划的一部分,服务全球互联互通需求。

基本信息
目录编号:
59167
目录名称:
STARLINK-31298
国际标识:
2024-044R
轨道中心:
EARTH
卫星名称:
星链-31298
卫星全名:
星链-31298 (STARLINK-31298 )
卫星状态:
在轨 (已飞行914 天)
发射日期:
2024-03-04 UTC
国别 :
美国 (US)
星等 :
--
轨道信息
数据来源 国际轨道数据 AOE轨道数据
星历时间 2026-09-04T12:20:13+0800
4小时前
查看轨道信息
2026-09-03T23:00:00+0800
17小时前
查看轨道信息
半长轴 6861.195km 6861.177km
偏心率 0.0000935 0.000084
轨道倾角 43.001° 42.998°
近地点辐角 269.898° 241.952°
升交点赤经 178.987° 182.126°
平近点角 90.177° 298.557°
近地点 482.416km 482.463km
远地点 483.7km 483.617km
周期 94.267分钟 94.267分钟
每日圈数 15.275771 15.275831
详细信息
固有亮度:
5
最大亮度:
0.3
卫星平台:
Starlink v2.0 mini
覆盖范围:
全球
运营商:
太空探索技术公司
运营商所在国:
美国
制造商(研发单位):
太空探索技术公司
制造商所在国:
美国
使用方式:
暂无
卫星简介
星链(Starlink)计划是由太空探索技术公司(SpaceX)提出的一个巨型低轨卫星互联网星座项目,计划在2019年至2024年间在太空搭建由约1.2万颗卫星组成的“星链”网络,其中1584颗将部署在地球上空550千米处的近地轨道,并从2020年开始工作。该卫星仍在工作。
2D轨道图
3D轨道图
轨道高度分析图
轨道倾角分析图
轨道综合分析图
查看轨道综合分析图
交会数据列表
事件ID 空间交会对象 最接近时刻(TCA) 交会距离 交会风险概率(CRP) 交会风险指数(CRI) 操作
CDM_260901-074205-486905-916722
2026-09-01T
07:42:17+0000
0.385 km
远距离
1.051461E-4 高风险 0.75
CDM_260905-064705-916706-210921
2026-09-05T
06:47:51+0000
0.917 km
远距离
2.335372E-5 中风险 0.62
CDM_260901-034605-486905-916722
2026-09-01T
03:46:54+0000
0.800 km
远距离
1.209874E-5 中风险 0.57
CDM_260905-082205-916706-210921
2026-09-05T
08:22:01+0000
1.408 km
极远距离
5.372924E-6 低风险 0.5
CDM_260905-051305-916706-210921
2026-09-05T
05:13:42+0000
1.947 km
极远距离
2.060237E-6 低风险 0.41
CDM_260905-095605-916706-210921
2026-09-05T
09:56:10+0000
2.730 km
极远距离
1.056405E-6 低风险 0.35
CDM_260901-060805-486905-916721
2026-09-01T
06:08:08+0000
2.024 km
极远距离
7.22064E-7 极低风险 0.32
CDM_260901-052105-486905-916722
2026-09-01T
05:21:03+0000
2.363 km
极远距离
5.404796E-7 极低风险 0.3